{"data":{"norad_id":40973,"intl_designator":"2015-058K","name":"PROPCUBE 3","alt_names":[],"object_type":"PAYLOAD","status":"ACTIVE","operator":null,"country":"US","launch_date":"2015-10-08","launch_site_code":"AFWTR","launch_vehicle":null,"mission":null,"orbit_class":"UNKNOWN","rcs_meters":null,"size_class":null,"mass_kg":null,"dimensions":null,"purposes":["tech_demo"],"wikipedia_slug":null,"has_3d_model":false,"image_url":null,"decayed_at":null,"tle_current":{"epoch":"2026-05-24T20:24:51.516864Z","epoch_age_seconds":83837,"freshness":"FRESH","line1":"1 40973U 15058K   26144.85059626  .00003423  00000+0  28947-3 0  9994","line2":"2 40973  64.7693 325.4394 0123248  69.2334 292.1933 14.94081071111318","mean_motion":14.94081071,"eccentricity":0.0123248,"inclination_deg":64.7693,"raan_deg":325.4394,"arg_perigee_deg":69.2334,"mean_anomaly_deg":292.1933,"bstar":0.00028947,"rev_number":11131,"period_min":96.380312149741,"perigee_km":499.40442008931,"apogee_km":671.04854458351,"semimajor_km":6963.3634823364,"source":"CELESTRAK","updated_at":"2026-05-25T13:38:25.526808Z"}}}